Location: Newark
(37.8333°N, 119.5000°W)
Time: 23:01:30
(UTC+00:00)

Transit 4A - Visible Passes

Search period start: 19 August 2019 00:00
Search period end: 29 August 2019 00:00
Orbit: 863 x 981 km, 66.8° (Epoch: 18 August)

Date Brightness Start Highest point End Pass type
(mag) Time Alt. Az. Time Alt. Az. Time Alt. Az.
19 Aug 9.8 03:38:51 10° WSW 03:44:39 35° NW 03:50:29 10° NNE visible
19 Aug 9.6 10:57:17 10° N 11:02:47 32° NE 11:08:07 10° ESE visible
19 Aug 8.3 12:43:31 10° NW 12:49:12 41° WSW 12:54:44 10° S visible
20 Aug 10.4 03:49:04 10° WSW 03:54:15 25° NW 03:59:27 10° N visible
20 Aug 8.9 11:06:23 10° NNW 11:12:19 46° NE 11:18:03 10° SE visible
21 Aug 10.8 03:59:41 10° W 04:03:58 18° NW 04:08:16 10° N visible
21 Aug 10.8 09:31:19 10° NNE 09:34:10 13° NE 09:36:58 10° ENE visible
21 Aug 8.2 11:15:35 10° NNW 11:21:45 68° ENE 11:27:42 10° SE visible
22 Aug 10.9 04:10:53 10° WNW 04:13:47 13° NW 04:16:41 10° NNW visible
22 Aug 10.3 09:39:46 10° N 09:43:58 18° NE 09:48:03 10° E visible
22 Aug 7.7 11:24:55 10° NNW 11:31:07 81° WSW 11:37:03 10° SSE visible
23 Aug 9.8 09:48:35 10° N 09:53:40 26° NE 09:58:36 10° ESE visible
23 Aug 7.9 11:34:24 10° NW 11:40:22 54° WSW 11:46:07 10° S visible
24 Aug 9.2 09:57:36 10° NNW 10:03:16 36° NE 10:08:45 10° ESE visible
24 Aug 8.4 11:44:04 10° NW 11:49:33 35° WSW 11:54:50 10° S visible
25 Aug 10.7 08:23:42 10° NNE 08:24:52 10° NE 08:26:02 10° NE visible
25 Aug 8.5 10:06:44 10° NNW 10:12:46 53° ENE 10:14:40 39° ESE visible
25 Aug 9.0 11:54:04 10° NW 11:57:54 22° W 11:57:54 22° W visible
26 Aug 10.7 03:00:41 10° W 03:04:32 16° NW 03:08:24 10° N visible
26 Aug 10.4 08:31:22 10° N 08:34:45 15° NE 08:37:43 11° ENE visible
26 Aug 8.2 10:16:00 10° NNW 10:21:04 61° N 10:21:04 61° N visible
27 Aug 10.9 03:12:16 10° WNW 03:14:24 12° NW 03:16:31 10° NNW visible
27 Aug 9.9 08:39:58 10° N 08:44:30 21° NE 08:45:04 20° NE visible
27 Aug 9.1 10:25:22 10° NNW 10:28:28 31° NW 10:28:28 31° NW visible
28 Aug 9.7 08:48:52 10° N 08:52:53 27° NNE 08:52:53 27° NNE visible
28 Aug 9.8 10:34:55 10° NW 10:36:18 17° NW 10:36:18 17° NW visible
